Location: Newark
(52.7705°N, 1.2046°W)
Time: 08:43:46
(UTC+00:00)

Falcon 9 debris - Visible Passes

Search period start: 18 July 2019 00:00
Search period end: 28 July 2019 00:00
Orbit: 431 x 439 km, 53.0° (Epoch: 17 July)

Date Brightness Start Highest point End Pass type
(mag) Time Alt. Az. Time Alt. Az. Time Alt. Az.
18 Jul 4.1 02:00:45 21° SSW 02:02:16 31° SSE 02:05:21 10° E visible
19 Jul 4.4 01:19:49 23° SSE 01:20:08 24° SE 01:22:57 10° E visible
19 Jul 3.1 02:53:22 10° WSW 02:56:49 73° SSE 03:00:16 10° E visible
20 Jul 5.1 00:38:50 17° ESE 00:38:50 17° ESE 00:40:27 10° E visible
20 Jul 3.2 02:12:06 17° WSW 02:14:35 61° SSE 02:18:00 10° E visible
21 Jul 3.4 01:31:05 31° SSW 01:32:22 49° SSE 01:35:43 10° E visible
21 Jul 3.2 03:05:52 10° W 03:09:19 85° N 03:12:47 10° E visible
22 Jul 3.6 00:50:01 38° SSE 00:50:10 39° SSE 00:53:25 10° E visible
22 Jul 3.1 02:23:35 10° W 02:27:03 90° NNW 02:30:31 10° E visible
23 Jul 4.4 00:08:55 26° ESE 00:08:55 26° ESE 00:11:04 10° E visible
23 Jul 3.0 01:42:11 17° WSW 01:44:47 82° SSE 01:48:15 10° E visible
23 Jul 3.1 03:18:24 10° W 03:21:52 89° SSW 03:25:19 10° E visible
23 Jul 5.2 23:27:44 15° E 23:27:44 15° E 23:28:39 10° E visible
24 Jul 3.0 01:01:00 30° WSW 01:02:31 72° SSE 01:05:58 10° E visible
24 Jul 3.1 02:36:07 10° W 02:39:35 86° N 02:43:02 10° E visible
25 Jul 3.1 00:19:43 51° SSW 00:20:16 60° SSE 00:23:42 10° E visible
25 Jul 3.1 01:53:50 10° W 01:57:18 84° N 02:00:46 10° E visible
25 Jul 3.3 23:38:15 48° SE 23:38:15 48° SE 23:41:24 10° E visible
26 Jul 3.1 01:11:32 10° W 01:15:00 86° N 01:18:28 10° E visible
26 Jul 3.0 02:48:37 10° W 02:52:04 71° SSW 02:55:30 10° ESE visible
26 Jul 3.7 22:56:17 36° SE 22:56:17 36° SE 22:59:05 10° E visible
27 Jul 3.0 00:29:26 11° W 00:32:43 90° SSW 00:36:10 10° E visible
27 Jul 3.0 02:06:20 10° W 02:09:48 82° SSW 02:13:15 10° ESE visible
27 Jul 3.9 22:10:36 10° SSW 22:13:39 30° SSE 22:16:43 10° E visible
27 Jul 3.0 23:46:58 10° WSW 23:50:26 82° S 23:53:54 10° E visible
